CW4498 Weather Reports


time (UTC)temp
F
wind
direction
speed
knots
gust
knots
rain 1hr
in
rain 24hr
in
rain mn
in
humidity
%
barometer
mb
20260903043026 67 32 1.7 3.5 0.00 0.00 0.00 43 1015.9
20260903041526 68 27 0.9 3.5 0.00 0.00 0.00 42 1016.0
20260903040028 68 26 0.9 1.7 0.00 0.00 0.00 41 1016.0
20260903034525 69 26 0.9 3.5 0.00 0.00 0.00 39 1016.1
20260903033024 70 17 0.9 2.6 0.00 0.00 0.00 35 1016.0
20260903031524 73 153 0.0 2.6 0.00 0.00 0.00 29 1016.0
20260903030029 74 276 0.9 3.5 0.00 0.00 0.00 28 1015.3
20260903024523 74 261 1.7 4.3 0.00 0.00 0.00 27 1015.2
20260903023022 75 267 1.7 6.1 0.00 0.00 0.00 27 1015.1
20260903021523 74 242 1.7 3.5 0.00 0.00 0.00 28 1014.9
20260903020035 73 223 0.9 4.3 0.00 0.00 0.00 28 1014.5
20260903014524 72 257 0.0 1.7 0.00 0.00 0.00 29 1014.5
20260903013020 73 268 0.0 1.7 0.00 0.00 0.00 30 1014.4
20260903011521 75 136 0.0 0.9 0.00 0.00 0.00 29 1014.4
20260903010020 76 125 0.9 2.6 0.00 0.00 0.00 27 1014.5
20260903004519 77 132 0.9 4.3 0.00 0.00 0.00 25 1014.5
20260903003019 78 119 0.0 1.7 0.00 0.00 0.00 25 1014.5
20260903001519 79 113 0.9 6.1 0.00 0.00 0.00 24 1014.1
20260903000018 80 119 1.7 6.1 0.00 0.00 0.00 23 1014.2
20260902234517 79 115 0.9 5.2 0.00 0.00 0.00 25 1014.4
20260902233017 79 132 0.9 3.5 0.00 0.00 0.00 25 1014.5
20260902231516 79 115 0.0 2.6 0.00 0.00 0.00 25 1014.5
20260902230017 79 116 0.9 4.3 0.00 0.00 0.00 25 1014.5
20260902224516 79 140 0.0 4.3 0.00 0.00 0.00 25 1014.6
20260902223021 79 126 0.9 5.2 0.00 0.00 0.00 25 1014.8
20260902221519 79 132 0.9 5.2 0.00 0.00 0.00 25 1014.9
20260902220012 81 192 0.9 7.0 0.00 0.00 0.00 24 1015.1
20260902214512 82 153 1.7 7.0 0.00 0.00 0.00 24 1015.2
20260902213011 82 136 3.5 6.1 0.00 0.00 0.00 24 1015.3
20260902211517 81 104 3.5 9.6 0.00 0.00 0.00 25 1015.6
20260902210010 82 119 3.5 10.4 0.00 0.00 0.00 25 1015.9
20260902204517 83 109 3.5 8.7 0.00 0.00 0.00 25 1016.1
20260902203010 83 112 5.2 9.6 0.00 0.00 0.00 24 1016.5
20260902201507 82 125 4.3 11.3 0.00 0.00 0.00 25 1016.8
20260902200006 82 105 3.5 8.7 0.00 0.00 0.00 25 1016.9
20260902194505 81 148 5.2 13.0 0.00 0.00 0.00 25 1017.0
20260902193005 82 105 3.5 9.6 0.00 0.00 0.00 26 1017.3
20260902191505 81 134 2.6 11.3 0.00 0.00 0.00 26 1017.5
20260902190006 84 206 1.7 7.8 0.00 0.00 0.00 25 1017.6
20260902184602 81 57 1.7 7.8 0.00 0.00 0.00 27 1018.2
20260902183109 80 149 0.9 9.6 0.00 0.00 0.00 27 1018.3
20260902181602 78 126 4.3 9.6 0.00 0.00 0.00 28 1018.5
20260902180054 79 126 2.6 8.7 0.00 0.00 0.00 28 1018.8
20260902174557 78 112 3.5 8.7 0.00 0.00 0.00 29 1019.1
20260902173058 78 136 1.7 7.8 0.00 0.00 0.00 29 1019.2
20260902171549 77 126 3.5 8.7 0.00 0.00 0.00 28 1019.4
20260902170052 77 119 2.6 8.7 0.00 0.00 0.00 29 1019.6
20260902164544 76 115 0.9 7.8 0.00 0.00 0.00 30 1019.7
20260902163045 75 272 4.3 12.2 0.00 0.00 0.00 31 1019.6
20260902161543 74 273 1.7 8.7 0.00 0.00 0.00 31 1019.8
20260902160046 75 292 0.0 3.5 0.00 0.00 0.00 31 1020.1
20260902154541 74 290 1.7 8.7 0.00 0.00 0.00 31 1020.1
20260902153051 73 24 1.7 10.4 0.00 0.00 0.00 32 1020.4
20260902151538 73 299 0.0 8.7 0.00 0.00 0.00 32 1020.5
20260902150035 72 31 5.2 10.4 0.00 0.00 0.00 32 1020.1
20260902144533 71 324 7.8 17.4 0.00 0.00 0.00 32 1020.1
20260902143030 71 304 3.5 13.0 0.00 0.00 0.00 33 1020.1
20260902141529 70 315 5.2 15.6 0.00 0.00 0.00 32 1020.2
20260902140028 70 277 6.1 16.5 0.00 0.00 0.00 31 1020.1
20260902134526 69 281 7.8 14.8 0.00 0.00 0.00 31 1019.8
20260902133028 69 307 7.8 18.2 0.00 0.00 0.00 32 1019.8
20260902131523 68 11 10.4 19.1 0.00 0.00 0.00 33 1019.8
20260902130023 68 279 7.0 19.1 0.00 0.00 0.00 34 1019.4
20260902124522 68 328 7.8 22.6 0.00 0.00 0.00 34 1019.3
20260902123021 68 304 8.7 20.9 0.00 0.00 0.00 34 1019.4
20260902121520 68 324 7.8 20.0 0.00 0.00 0.00 33 1019.3
20260902120019 68 309 8.7 18.2 0.00 0.00 0.00 32 1019.0
20260902114519 68 295 8.7 20.9 0.00 0.00 0.00 32 1018.9
20260902113020 68 284 7.8 16.5 0.00 0.00 0.00 32 1018.9
20260902111520 68 290 8.7 21.7 0.00 0.00 0.00 33 1018.9
20260902110034 68 283 8.7 24.3 0.00 0.00 0.00 33 1019.0
20260902104532 68 288 7.0 22.6 0.00 0.00 0.00 35 1019.0
20260902103031 68 271 7.0 20.0 0.00 0.00 0.00 35 1019.0
20260902101514 68 254 6.1 18.2 0.00 0.00 0.00 37 1019.0
20260902100013 68 298 5.2 12.2 0.00 0.00 0.00 39 1019.5
20260902094509 67 330 3.5 14.8 0.00 0.00 0.00 41 1019.4
20260902093004 62 267 1.7 7.8 0.00 0.00 0.00 51 1019.4
20260902091504 59 105 0.0 0.9 0.00 0.00 0.00 73 1019.5
20260902090006 59 281 0.0 0.9 0.00 0.00 0.00 74 1019.7
20260902084602 59 281 0.0 0.0 0.00 0.00 0.00 73 1019.8
20260902083059 60 281 0.0 0.9 0.00 0.00 0.00 70 1019.7
20260902081557 59 281 0.0 0.9 0.00 0.00 0.00 72 1019.8
20260902080056 60 281 0.0 0.9 0.00 0.00 0.00 70 1019.9
20260902074555 60 281 0.0 0.9 0.00 0.00 0.00 71 1020.0
20260902073053 60 281 0.0 0.0 0.00 0.00 0.00 69 1020.1
20260902071553 60 281 0.0 0.0 0.00 0.00 0.00 67 1020.0
20260902070052 61 281 0.0 0.0 0.00 0.00 0.00 67 1020.1
20260902064601 61 281 0.0 0.9 0.00 0.00 0.00 69 1020.1
20260902063104 60 281 0.0 0.0 0.00 0.00 0.00 69 1020.2
20260902060044 62 281 0.0 0.9 0.00 0.00 0.00 68 1020.1
20260902054544 62 281 0.0 0.9 0.00 0.00 0.00 68 1020.1
20260902053044 62 273 0.0 0.0 0.00 0.00 0.00 67 1020.2
20260902051557 62 273 0.0 0.0 0.00 0.00 0.00 66 1020.2
20260902050043 63 273 0.0 0.0 0.00 0.00 0.00 65 1020.5
20260902044603 64 273 0.0 0.0 0.00 0.00 0.00 63 1020.8